Snowfall_Accumulation
0.0 0.0 0.0 0.0 0.0 0.0 0.0 0.0 0.0 0.0 0.0 0.0 0.0 0.0 0.0 0.0 0.0 0.0 0.0 0.0 0.0 0.0 0.0 0.0 0.0 0.0 0.3 0.2 0.2 0.2 0.3 0.6 2.2 1.2 1.2 1.4 1.6 1.7 1.4 1.2 1.3 0.3 0.2
0.0 0.0 0.0 0.0 0.0 0.0 0.0 0.0 0.0 0.0 0.0 0.0 0.0 0.0 0.0 0.0 0.0 0.0 0.0 0.0 0.0 0.0 0.0 0.0 0.1 0.0 0.2 0.1 0.5 0.2 0.3 0.3 1.4 2.4 1.5 3.4 3.8 2.2 2.2 1.6 1.5 0.7 0.7
0.0 0.0 0.0 0.0 0.0 0.3 1.1 0.3 0.1 0.4 0.4 0.0 0.0 0.0 0.0 0.0 0.0 0.0 0.0 0.0 0.0 0.0 0.0 0.1 0.1 0.3 0.5 0.7 0.5 0.5 0.6 0.2 0.8 2.2 3.8 3.2 4.8 4.0 4.5 3.7 2.7 1.5 0.3
0.0 0.0 0.0 0.1 0.1 0.4 1.5 3.1 2.9 1.3 0.9 0.6 0.3 0.6 0.7 0.5 0.1 0.1 0.0 0.0 0.0 0.0 0.0 0.0 0.1 0.4 1.9 2.2 0.6 0.5 0.3 0.9 1.3 2.2 3.0 4.9 4.3 4.9 3.2 4.1 5.2 3.2 2.8
0.1 1.2 2.9 1.3 1.2 2.7 4.8 5.0 4.3 2.8 2.0 2.6 2.2 1.6 1.1 0.2 0.1 0.1 0.0 0.0 0.0 0.1 0.1 0.0 0.0 0.1 nan nan 1.2 0.8 0.7 1.5 2.5 2.7 4.3 4.0 4.0 4.7 4.7 4.4 4.7 4.2 4.4
1.7 5.7 4.7 5.0 4.5 4.9 7.6 6.8 5.9 4.9 4.7 3.8 2.7 2.1 1.5 0.0 nan nan 0.0 0.0 0.0 0.1 0.2 0.1 0.0 0.0 0.1 nan nan nan nan 2.4 3.0 3.9 4.1 3.9 3.6 3.7 3.7 4.2 4.0 5.3 6.8
5.1 7.1 8.0 8.7 7.0 7.6 7.0 6.9 6.2 5.1 3.7 4.7 3.5 1.5 1.6 0.3 nan nan nan 0.1 0.1 0.1 0.1 0.1 0.1 0.0 0.1 0.1 nan nan nan nan nan 1.5 2.9 3.4 3.1 2.7 2.3 2.9 3.1 3.2 3.7
6.8 7.7 7.4 8.1 7.2 6.4 6.7 6.4 6.3 3.9 4.5 2.8 3.0 2.6 1.6 1.1 nan nan nan 0.2 0.4 0.5 0.2 0.2 0.2 0.1 0.1 0.2 0.4 0.9 1.3 1.7 1.7 1.3 1.7 1.8 1.5 1.1 1.4 1.4 2.3 2.9 3.9
8.2 7.7 7.6 6.4 8.2 7.5 7.5 7.4 4.6 2.6 1.6 2.5 2.4 2.5 1.4 3.1 nan nan 0.3 0.9 0.7 1.3 1.4 0.8 0.5 0.4 nan nan 0.3 1.4 1.8 2.1 nan nan nan nan nan nan nan 2.7 10.2 12.9 9.1
6.3 6.6 6.3 6.0 5.6 7.0 4.6 5.7 5.3 2.4 2.7 1.9 1.7 1.8 1.4 1.9 nan nan nan 1.1 1.2 2.3 2.0 1.8 1.7 0.5 nan nan 1.0 1.9 4.6 4.4 3.3 3.8 2.4 1.3 nan nan nan 1.5 3.7 10.2 7.4
3.0 3.7 4.4 3.7 3.7 2.9 2.1 1.5 1.9 2.3 2.3 2.8 2.5 1.7 2.4 1.5 2.1 nan nan 1.8 3.4 3.2 3.0 3.6 2.6 nan nan nan nan 2.2 3.7 3.7 4.7 5.3 6.6 6.7 4.9 2.7 3.7 3.5 3.4 4.6 7.6
1.3 1.6 2.2 2.3 1.4 1.2 1.1 0.6 1.5 0.8 0.8 2.2 1.9 2.2 1.9 1.3 nan nan nan nan nan 2.7 2.8 3.0 2.9 nan nan nan 1.8 nan nan 2.5 6.1 7.1 6.6 6.9 8.7 7.7 6.0 6.7 6.8 5.9 6.2
1.6 3.0 2.8 2.2 1.4 1.1 0.9 0.4 1.4 0.2 1.2 0.4 1.8 1.9 1.6 1.9 1.5 nan nan nan nan 1.5 1.3 1.9 nan nan nan nan nan nan 1.2 4.8 6.5 8.0 7.1 6.7 6.3 5.7 4.4 5.6 5.3 4.8 5.1
3.4 2.1 1.3 1.3 0.7 0.7 1.2 1.2 1.9 2.0 2.0 2.1 2.7 2.6 1.7 1.7 1.3 1.0 1.3 0.6 0.5 1.8 nan 1.6 nan 1.1 nan nan 1.4 1.5 3.1 4.2 5.0 6.0 7.0 6.2 5.4 7.3 8.1 5.3 6.3 5.9 8.5
3.0 1.2 0.9 1.7 1.9 1.2 1.1 1.7 1.5 0.5 1.7 4.4 5.4 4.0 6.1 5.6 3.0 0.9 2.7 3.1 2.9 3.4 4.4 6.4 5.9 4.8 4.8 4.1 4.3 4.6 4.7 5.1 6.2 6.7 7.9 8.5 9.1 8.6 9.0 5.6 6.5 7.7 9.2
2.1 3.0 2.5 2.6 2.2 1.9 2.0 2.1 nan nan nan nan nan 2.4 3.6 nan nan nan nan nan nan nan 11.9 12.8 7.4 6.1 6.0 6.1 7.6 7.6 6.9 6.8 7.3 8.9 9.9 9.5 10.8 10.1 10.6 10.8 9.4 10.3 11.0
4.8 3.4 4.3 3.8 3.5 3.7 3.7 4.0 6.2 3.0 nan nan nan nan nan nan nan nan nan nan nan nan 17.9 10.1 9.6 7.3 7.1 7.0 7.5 8.3 10.1 9.1 7.6 10.0 10.0 10.8 11.6 11.9 12.4 12.6 10.9 10.2 13.0
4.9 2.1 4.3 4.1 3.9 4.4 4.5 4.7 5.1 6.7 8.2 6.4 nan nan nan nan nan nan nan nan 16.3 nan 12.5 15.0 14.8 11.7 10.0 9.5 8.4 10.7 10.8 9.8 9.8 10.0 11.0 13.8 15.5 16.4 16.4 15.9 13.2 15.2 14.8
6.2 4.8 5.2 5.0 4.7 5.0 6.2 5.3 5.3 6.7 7.4 8.9 9.3 7.5 3.6 nan nan nan nan 10.6 15.7 14.6 14.2 14.5 11.8 11.9 10.6 10.7 9.9 10.9 13.1 14.2 12.8 15.3 15.6 18.4 17.6 18.2 19.2 15.3 13.9 8.9 9.4
8.7 3.8 5.6 8.4 8.1 7.6 6.5 9.2 8.7 9.3 11.2 12.0 11.7 10.1 11.2 11.6 14.7 14.0 10.2 13.7 15.6 14.9 13.4 14.9 14.2 15.6 16.6 15.8 15.0 13.7 17.6 19.4 18.4 17.0 16.8 17.4 18.0 19.3 17.5 20.0 18.4 17.0 17.0
13.2 12.0 4.0 11.9 13.0 13.1 13.1 12.4 11.9 14.6 13.7 14.8 12.5 10.4 nan 14.7 17.9 15.8 16.6 15.0 15.2 16.6 15.8 16.3 16.8 20.7 20.5 22.4 19.6 19.5 21.0 16.0 18.3 19.5 19.2 19.9 22.0 27.3 18.9 16.1 19.4 20.0 18.7
15.7 16.6 16.7 17.6 14.5 15.5 16.8 14.3 15.9 15.9 16.3 15.4 14.2 13.4 nan 13.1 14.1 15.2 15.6 17.2 19.1 18.6 20.3 25.6 24.8 25.3 22.4 21.5 20.1 19.3 19.2 22.3 22.9 22.2 19.4 20.9 24.1 22.6 22.9 19.7 19.9 18.4 20.9
15.9 15.4 16.1 16.5 15.8 7.7 17.2 19.3 19.2 19.5 19.2 20.2 19.3 20.4 20.6 21.0 19.0 18.4 21.4 21.7 18.7 18.2 20.3 21.6 20.8 20.7 17.9 18.9 16.5 16.3 20.1 22.3 22.4 27.3 23.5 23.4 24.0 25.8 24.5 23.7 22.3 25.1 23.9
16.0 16.2 16.4 19.4 19.0 18.0 19.1 19.6 18.4 7.7 20.4 21.7 26.8 25.2 21.6 23.8 26.5 21.0 20.3 20.6 18.3 24.5 19.9 20.6 18.4 18.1 18.4 22.2 24.8 23.4 24.6 25.4 27.5 28.7 28.2 24.2 23.5 20.3 23.4 25.5 22.6 22.0 20.7
20.3 19.6 19.6 19.1 22.8 21.1 20.3 22.1 19.8 22.7 24.3 22.2 24.7 22.2 22.7 22.3 23.3 26.8 24.8 21.6 21.6 19.7 18.0 17.3 16.9 17.2 17.6 17.9 21.0 22.6 21.0 5.2 16.0 5.6 28.0 23.7 25.4 25.0 25.2 23.7 22.6 21.5 20.1
20.0 20.7 21.0 21.5 21.7 22.3 22.5 22.0 22.1 20.1 22.3 22.7 22.6 23.4 22.3 22.6 22.5 23.8 23.6 23.5 20.1 19.1 18.4 18.2 17.8 17.0 16.5 16.4 16.4 7.2 4.9 4.5 21.4 5.0 24.6 25.5 25.6 23.8 23.7 23.7 22.8 22.2 20.1
Water_Equivalent
0.00 0.00 0.00 0.00 0.00 0.00 0.00 0.00 0.00 0.00 0.00 0.00 0.00 0.00 0.00 0.00 0.00 0.00 0.00 0.00 0.00 0.00 0.00 0.00 0.00 0.00 0.08 0.05 0.04 0.04 0.06 0.12 0.44 0.33 0.30 0.31 0.34 0.34 0.27 0.24 0.28 0.07 0.06
0.00 0.00 0.00 0.00 0.00 0.00 0.00 0.00 0.00 0.00 0.00 0.00 0.00 0.00 0.00 0.00 0.00 0.00 0.00 0.00 0.00 0.00 0.00 0.01 0.02 0.00 0.03 0.02 0.12 0.05 0.07 0.07 0.33 0.47 0.35 0.98 0.88 0.46 0.44 0.30 0.26 0.12 0.19
0.00 0.00 0.00 0.00 0.01 0.11 0.39 0.12 0.02 0.18 0.17 0.02 0.00 0.00 0.01 0.01 0.01 0.00 0.00 0.00 0.00 0.00 0.00 0.01 0.02 0.06 0.09 0.18 0.12 0.14 0.17 0.06 0.20 0.61 1.09 0.95 1.40 1.17 1.24 0.99 0.59 0.29 0.06
0.00 0.00 0.01 0.03 0.03 0.16 0.57 1.16 1.10 0.52 0.34 0.22 0.10 0.25 0.29 0.18 0.03 0.04 0.00 0.01 0.01 0.01 0.01 0.00 0.01 0.07 0.31 0.36 0.13 0.11 0.07 0.26 0.35 0.61 0.85 1.17 1.05 1.25 0.91 0.96 1.14 0.82 0.72
0.02 0.39 0.90 0.44 0.41 0.84 1.46 1.53 1.36 1.02 0.73 0.93 0.79 0.55 0.40 0.08 0.03 0.02 0.00 0.01 0.02 0.03 0.03 0.01 0.00 0.03 nan nan 0.29 0.19 0.16 0.35 0.63 0.70 0.92 0.86 0.82 0.97 0.98 1.04 1.09 0.98 1.05
0.51 1.40 1.32 1.47 1.36 1.32 1.85 1.46 1.29 1.10 1.28 1.01 0.76 0.61 0.44 0.01 nan nan 0.00 0.01 0.02 0.03 0.05 0.03 0.01 0.01 0.02 nan nan nan nan 0.46 0.58 0.82 0.81 0.68 0.59 0.75 0.84 0.91 0.88 1.22 1.34
1.26 1.95 2.18 2.20 1.52 1.61 1.53 1.52 1.24 1.00 0.96 1.09 0.78 0.40 0.44 0.09 nan nan nan 0.05 0.04 0.03 0.03 0.03 0.03 0.01 0.04 0.03 nan nan nan nan nan 0.29 0.48 0.56 0.50 0.46 0.43 0.54 0.59 0.69 0.77
1.61 1.79 1.73 1.87 1.48 1.35 1.31 1.23 1.40 0.94 1.15 0.71 0.80 0.65 0.43 0.40 nan nan nan 0.08 0.10 0.16 0.07 0.06 0.04 0.04 0.03 0.05 0.07 0.18 0.27 0.33 0.33 0.25 0.31 0.32 0.28 0.22 0.25 0.27 0.44 0.53 0.82
1.75 1.63 1.62 1.38 1.63 1.36 1.26 1.36 0.94 0.52 0.32 0.49 0.58 0.60 0.35 0.83 nan nan 0.09 0.24 0.17 0.37 0.41 0.26 0.16 0.11 nan nan 0.07 0.28 0.36 0.38 nan nan nan nan nan nan nan 0.70 2.50 3.05 1.95
1.19 1.30 1.28 1.19 1.13 1.12 0.77 0.92 1.09 0.54 0.56 0.44 0.34 0.39 0.42 0.45 nan nan nan 0.33 0.27 0.55 0.49 0.49 0.55 0.12 nan nan 0.26 0.40 0.88 0.81 0.58 0.80 0.46 0.25 nan nan nan 0.27 0.83 2.28 1.57
0.53 0.66 0.79 0.67 0.68 0.55 0.39 0.29 0.33 0.38 0.41 0.46 0.37 0.32 0.44 0.35 0.47 nan nan 0.44 0.81 0.69 0.65 0.78 0.62 nan nan nan nan 0.53 0.69 0.69 0.90 0.93 1.16 1.28 0.90 0.49 0.69 0.62 0.57 0.93 1.64
0.22 0.26 0.34 0.39 0.24 0.23 0.23 0.10 0.26 0.14 0.13 0.29 0.28 0.45 0.40 0.22 nan nan nan nan nan 0.56 0.50 0.60 0.66 nan nan nan 0.54 nan nan 0.70 1.37 1.47 1.28 1.16 1.23 1.10 0.88 0.99 0.86 0.86 0.92
0.28 0.58 0.51 0.38 0.27 0.21 0.21 0.09 0.38 0.06 0.29 0.08 0.38 0.39 0.33 0.37 0.33 nan nan nan nan 0.35 0.30 0.39 nan nan nan nan nan nan 0.39 1.07 1.36 1.61 1.18 0.94 0.85 0.83 0.64 0.84 0.69 0.61 0.63
0.71 0.33 0.19 0.23 0.15 0.14 0.32 0.35 0.52 0.47 0.43 0.46 0.56 0.56 0.39 0.39 0.28 0.26 0.40 0.22 0.17 0.49 nan 0.43 nan 0.29 nan nan 0.42 0.42 0.67 0.83 0.88 1.02 1.06 0.85 0.80 1.10 1.14 0.82 1.00 0.92 1.31
0.48 0.17 0.16 0.33 0.37 0.22 0.23 0.41 0.34 0.12 0.39 0.96 1.26 0.88 1.20 1.14 0.59 0.20 0.73 0.87 0.83 0.89 1.20 1.47 1.27 0.95 0.92 0.80 0.93 0.95 0.90 0.96 1.10 1.13 1.22 1.22 1.27 1.20 1.22 0.89 0.96 1.24 1.44
0.25 0.44 0.43 0.45 0.40 0.34 0.36 0.40 nan nan nan nan nan 0.65 1.04 nan nan nan nan nan nan nan 2.82 2.62 1.25 1.01 0.91 0.93 1.18 1.09 1.05 1.13 1.10 1.32 1.47 1.40 1.51 1.36 1.40 1.52 1.37 1.47 1.48
0.66 0.40 0.58 0.52 0.48 0.54 0.59 0.65 0.85 0.56 nan nan nan nan nan nan nan nan nan nan nan nan 4.14 1.93 1.61 1.15 1.15 1.09 1.16 1.10 1.24 1.11 0.90 1.42 1.34 1.44 1.56 1.67 1.83 1.66 1.42 1.35 1.81
0.64 0.70 0.65 0.61 0.60 0.69 0.73 0.76 0.86 1.05 1.20 0.94 nan nan nan nan nan nan nan nan 3.85 nan 2.85 2.98 2.57 2.06 1.66 1.55 1.31 1.37 1.36 1.36 1.33 1.34 1.44 1.96 2.26 2.43 2.31 2.32 1.79 2.16 2.06
0.75 0.61 0.69 0.68 0.65 0.73 0.91 0.76 0.80 0.94 1.01 1.24 1.23 1.25 0.97 nan nan nan nan 2.40 3.20 2.76 2.70 2.79 2.27 2.17 1.77 1.88 1.78 2.06 1.82 1.95 1.83 2.41 2.46 2.76 2.57 2.75 2.80 2.14 1.84 1.63 1.69
0.99 0.99 0.86 1.09 1.02 0.94 0.76 1.09 0.99 1.07 1.29 1.42 1.39 1.21 1.91 2.25 2.86 2.91 2.32 3.25 3.37 2.98 2.52 2.73 2.70 3.04 3.20 3.00 2.92 2.71 2.84 3.07 2.83 2.80 2.75 2.79 2.74 2.96 2.27 2.90 2.62 2.28 2.45
1.56 1.37 1.31 1.32 1.52 1.56 1.57 1.42 1.31 1.72 1.56 1.77 1.42 1.32 nan 2.37 2.49 2.67 2.97 2.75 3.07 3.33 2.78 2.99 3.15 4.07 4.19 4.67 3.93 3.85 3.55 2.29 2.83 3.08 3.26 3.32 3.35 4.24 2.71 2.09 2.76 2.92 2.73
1.82 1.95 1.95 2.07 1.54 1.69 1.95 1.52 1.73 1.74 1.75 1.61 1.43 1.55 nan 1.89 2.10 2.17 2.42 2.99 3.59 3.67 4.10 4.84 4.75 5.12 4.52 4.21 3.81 3.60 3.05 3.46 3.70 3.49 2.86 3.07 3.68 3.33 3.35 2.59 2.69 2.42 2.97
1.66 1.50 1.63 1.66 1.60 1.71 1.83 2.20 2.08 2.10 2.00 2.19 2.05 2.14 2.35 2.76 2.57 2.55 3.42 3.65 3.05 2.94 3.38 3.70 3.49 3.41 3.09 3.41 2.97 2.83 3.09 3.32 3.36 4.44 3.28 3.33 3.32 3.77 3.48 3.25 2.96 3.40 3.25
1.56 1.58 1.59 2.09 1.94 1.74 1.99 2.09 1.86 1.83 2.09 2.29 3.33 2.91 2.12 2.58 3.38 2.61 2.65 3.03 2.60 4.03 3.03 3.27 2.78 2.69 2.84 4.02 4.96 4.78 5.12 5.39 5.25 4.88 4.48 3.26 3.16 2.82 2.99 3.44 2.84 2.79 2.44
2.06 1.85 1.87 1.78 2.52 2.13 1.99 2.34 1.85 2.43 2.78 2.34 2.79 2.22 2.28 2.18 2.36 3.16 2.99 2.60 2.86 2.66 2.39 2.37 2.39 2.44 2.47 2.56 3.35 4.13 4.25 1.71 3.20 1.85 4.10 3.06 3.45 3.43 3.33 2.95 2.79 2.53 2.30
1.79 1.90 1.97 2.04 2.03 2.19 2.27 2.21 2.27 1.89 2.31 2.43 2.33 2.42 2.14 2.16 2.18 2.54 2.43 2.48 2.13 2.22 2.29 2.43 2.44 2.28 2.15 2.26 2.32 1.96 1.63 1.49 3.59 1.64 3.55 3.09 3.24 2.91 2.87 2.90 2.72 2.61 2.23
SL_Ratio
nan nan nan nan nan nan nan nan nan nan nan nan nan nan nan nan nan nan nan nan nan nan nan 5.0 nan 4.3 4.1 3.8 4.6 4.7 5.0 5.3 4.9 3.7 4.2 4.6 4.8 4.9 5.3 4.9 4.5 4.0 2.7
nan nan nan nan nan nan 2.5 nan nan 2.5 nan nan nan nan nan nan nan nan nan nan nan 5.0 3.3 4.5 4.1 nan 5.1 4.8 4.2 4.7 5.0 4.8 4.4 5.1 4.3 3.5 4.3 4.8 5.1 5.3 5.8 5.9 3.4
nan nan nan 2.5 2.5 2.8 2.8 2.7 2.5 2.5 2.5 2.4 nan nan 2.5 2.7 3.6 5.0 nan nan nan nan nan 4.7 4.6 4.7 5.3 4.2 4.2 3.6 3.8 4.0 3.7 3.6 3.5 3.4 3.4 3.4 3.6 3.7 4.5 4.9 5.2
5.0 2.5 2.8 2.8 2.8 2.8 2.7 2.7 2.6 2.5 2.5 2.5 2.5 2.5 2.5 2.5 3.9 2.7 2.5 2.5 2.6 2.8 3.0 2.9 4.7 5.1 6.0 5.9 4.4 4.3 4.4 3.6 3.6 3.5 3.5 4.2 4.1 3.9 3.5 4.3 4.5 3.9 3.8
2.7 3.1 3.3 3.0 3.0 3.2 3.3 3.3 3.2 2.8 2.7 2.8 2.8 3.0 2.9 2.5 5.1 3.6 2.5 2.7 2.9 2.6 2.6 2.7 3.3 3.6 nan nan 4.2 4.4 4.3 4.4 3.9 3.9 4.7 4.6 4.9 4.8 4.8 4.3 4.3 4.2 4.2
3.3 4.1 3.6 3.4 3.3 3.7 4.1 4.7 4.5 4.5 3.7 3.7 3.6 3.4 3.4 2.4 nan nan 2.5 3.1 3.0 2.7 3.1 2.7 2.5 3.3 4.7 nan nan nan nan 5.2 5.1 4.8 5.1 5.8 6.2 4.9 4.5 4.6 4.6 4.4 5.1
4.1 3.7 3.7 3.9 4.6 4.7 4.6 4.6 5.0 5.1 3.9 4.3 4.4 3.8 3.6 3.0 nan nan nan 2.7 3.2 2.9 3.2 3.4 2.9 3.0 2.9 4.2 nan nan nan nan nan 5.1 6.2 6.1 6.3 5.8 5.5 5.3 5.2 4.6 4.8
4.2 4.3 4.3 4.3 4.9 4.8 5.1 5.2 4.5 4.2 3.9 4.0 3.8 3.9 3.8 2.7 nan nan nan 3.1 3.6 3.5 3.4 3.6 4.0 3.9 4.0 4.5 4.9 4.9 4.8 5.0 5.2 5.0 5.6 5.7 5.4 5.1 5.5 5.2 5.4 5.6 4.7
4.7 4.7 4.7 4.7 5.0 5.5 6.0 5.4 4.8 5.0 4.9 5.0 4.1 4.2 4.1 3.7 nan nan 3.6 3.7 4.0 3.6 3.4 3.0 3.5 3.7 nan nan 4.5 5.0 5.1 5.4 nan nan nan nan nan nan nan 3.8 4.1 4.2 4.7
5.3 5.1 4.9 5.0 4.9 6.3 6.0 6.2 4.9 4.5 4.7 4.3 4.9 4.7 3.4 4.1 nan nan nan 3.5 4.3 4.2 4.0 3.7 3.0 3.8 nan nan 3.8 4.8 5.2 5.4 5.7 4.8 5.2 5.2 nan nan nan 5.5 4.5 4.5 4.7
5.6 5.5 5.5 5.5 5.4 5.3 5.3 5.1 5.8 6.0 5.7 6.0 6.6 5.3 5.5 4.3 4.4 nan nan 4.2 4.2 4.7 4.5 4.6 4.2 nan nan nan nan 4.2 5.4 5.4 5.3 5.7 5.7 5.3 5.5 5.5 5.3 5.6 6.0 5.0 4.6
6.0 6.2 6.4 6.0 5.9 5.2 4.9 5.4 5.8 6.1 6.1 7.6 6.7 5.0 4.8 5.9 nan nan nan nan nan 4.8 5.6 5.0 4.4 nan nan nan 3.3 nan nan 3.5 4.4 4.9 5.1 6.0 7.1 7.0 6.8 6.8 7.8 6.8 6.7
5.6 5.2 5.5 5.7 5.2 5.3 4.3 4.7 3.7 3.8 4.0 5.2 4.7 4.8 4.8 5.0 4.4 nan nan nan nan 4.2 4.4 4.9 nan nan nan nan nan nan 3.0 4.5 4.8 5.0 6.0 7.2 7.4 6.9 6.9 6.7 7.7 7.9 8.1
4.8 6.2 6.7 5.7 4.6 5.2 3.7 3.5 3.6 4.2 4.7 4.6 4.8 4.7 4.4 4.5 4.6 3.7 3.3 2.9 3.2 3.7 nan 3.8 nan 3.6 nan nan 3.4 3.5 4.7 5.1 5.6 5.9 6.6 7.3 6.8 6.6 7.1 6.5 6.3 6.4 6.5
6.2 7.5 5.7 5.1 5.1 5.4 5.1 4.0 4.3 3.9 4.2 4.5 4.3 4.6 5.1 4.9 5.0 4.3 3.7 3.5 3.5 3.8 3.7 4.4 4.7 5.1 5.2 5.2 4.6 4.8 5.3 5.4 5.7 5.9 6.4 6.9 7.2 7.1 7.4 6.3 6.8 6.2 6.4
8.2 6.7 5.9 5.7 5.7 5.7 5.6 5.3 nan nan nan nan nan 3.7 3.4 nan nan nan nan nan nan nan 4.2 4.9 5.9 6.0 6.7 6.6 6.4 6.9 6.5 6.0 6.7 6.7 6.7 6.8 7.2 7.4 7.6 7.1 6.9 7.0 7.5
7.3 8.6 7.3 7.3 7.3 6.8 6.4 6.1 7.3 5.4 nan nan nan nan nan nan nan nan nan nan nan nan 4.3 5.3 6.0 6.4 6.2 6.4 6.5 7.5 8.1 8.2 8.5 7.1 7.4 7.5 7.4 7.1 6.8 7.6 7.7 7.5 7.2
7.6 3.0 6.6 6.7 6.4 6.4 6.2 6.1 5.9 6.4 6.9 6.8 nan nan nan nan nan nan nan nan 4.2 nan 4.4 5.0 5.8 5.7 6.0 6.1 6.5 7.8 8.0 7.2 7.3 7.5 7.6 7.0 6.9 6.7 7.1 6.9 7.4 7.0 7.2
8.4 7.8 7.6 7.3 7.2 6.8 6.8 7.0 6.6 7.1 7.3 7.2 7.6 6.0 3.7 nan nan nan nan 4.4 4.9 5.3 5.2 5.2 5.2 5.5 6.0 5.7 5.5 5.3 7.2 7.3 7.0 6.4 6.4 6.7 6.8 6.6 6.9 7.2 7.6 5.5 5.6
8.8 3.9 6.5 7.7 7.9 8.0 8.5 8.4 8.9 8.7 8.7 8.5 8.4 8.4 5.9 5.2 5.2 4.8 4.4 4.2 4.6 5.0 5.3 5.4 5.3 5.1 5.2 5.3 5.1 5.1 6.2 6.3 6.5 6.1 6.1 6.2 6.6 6.5 7.7 6.9 7.0 7.5 6.9
8.4 8.8 3.0 9.0 8.5 8.4 8.3 8.8 9.1 8.5 8.8 8.4 8.8 7.9 nan 6.2 7.2 5.9 5.6 5.5 5.0 5.0 5.7 5.4 5.3 5.1 4.9 4.8 5.0 5.1 5.9 7.0 6.5 6.3 5.9 6.0 6.6 6.4 7.0 7.7 7.0 6.9 6.9
8.6 8.5 8.6 8.5 9.4 9.2 8.6 9.4 9.2 9.1 9.3 9.6 9.9 8.6 nan 6.9 6.7 7.0 6.4 5.8 5.3 5.1 4.9 5.3 5.2 4.9 5.0 5.1 5.3 5.4 6.3 6.4 6.2 6.4 6.8 6.8 6.5 6.8 6.8 7.6 7.4 7.6 7.0
9.5 10.2 9.9 9.9 9.9 4.5 9.4 8.8 9.2 9.3 9.6 9.2 9.4 9.6 8.8 7.6 7.4 7.2 6.3 5.9 6.1 6.2 6.0 5.8 5.9 6.1 5.8 5.5 5.6 5.8 6.5 6.7 6.7 6.1 7.1 7.0 7.2 6.8 7.0 7.3 7.5 7.4 7.3
10.3 10.3 10.3 9.3 9.8 10.4 9.6 9.4 9.9 4.2 9.7 9.5 8.0 8.7 10.2 9.2 7.9 8.0 7.7 6.8 7.1 6.1 6.6 6.3 6.6 6.7 6.5 5.5 5.0 4.9 4.8 4.7 5.2 5.9 6.3 7.4 7.5 7.2 7.8 7.4 8.0 7.9 8.5
9.9 10.6 10.4 10.7 9.1 9.9 10.2 9.4 10.7 9.3 8.7 9.5 8.9 10.0 10.0 10.3 9.9 8.5 8.3 8.3 7.5 7.4 7.5 7.3 7.1 7.1 7.1 7.0 6.3 5.5 4.9 3.0 5.0 3.0 6.8 7.7 7.4 7.3 7.6 8.0 8.1 8.5 8.8
11.1 10.9 10.7 10.6 10.7 10.2 9.9 10.0 9.8 10.7 9.7 9.4 9.7 9.7 10.4 10.5 10.3 9.4 9.7 9.5 9.5 8.6 8.0 7.5 7.3 7.5 7.7 7.3 7.1 3.7 3.0 3.0 6.0 3.0 6.9 8.2 7.9 8.2 8.3 8.2 8.4 8.5 9.0